[[{"header":{"parameterUnit":"m.s-1","parameterCategory":1,"la1":30.2991,"la2":30.254,"lo1":-89.0895,"lo2":-89.0444,"dy":0.0017,"dx":0.0017,"nx":28,"ny":28,"refTime":"2024-06-13T03:00:00:Z","depth":0,"parameterNumber":2,"parameterNumberName":"U-component_of_WINDS"},"data":[0,0,0,0,0,0,0,0,0,0,0,0,0,0,0,0,0,0,0,0,0,0,0,0,0,0,0,0,0,0,0,0,0,0,0,0,0,0,0,0,0,0,0,0,0,0,0,0,0,0,0,0,0,0,0,0,0,0,-0.7737,-0.7737,0,-0.7718,-0.7717,-0.7717,-0.7721,-0.7721,-0.7721,-0.7722,-0.77,-0.7699,-0.7698,0,0,0,0,0,0,0,0,0,0,0,0,0,-0.7775,-0.7775,-0.7737,-0.7737,-0.7737,-0.7718,-0.7717,-0.7717,-0.7721,-0.7721,-0.7721,-0.7722,-0.77,-0.7699,-0.7698,0,0,0,0,0,0,0,0,0,0,0,0,0,-0.7758,-0.7775,-0.7737,-0.7736,-0.7736,-0.7718,-0.7717,-0.7717,-0.772,-0.7721,-0.7721,-0.7722,-0.77,-0.7699,-0.7698,-0.7679,0,0,-0.7693,-0.7693,0,0,0,0,0,0,0,0,-0.7759,-0.7756,-0.7737,-0.7736,-0.7736,-0.7722,-0.7723,-0.7704,-0.772,-0.7726,-0.7722,-0.7722,-0.7707,-0.7705,-0.77,-0.7678,-0.7677,-0.7693,-0.7692,-0.7692,-0.7691,0,0,0,0,0,0,0,-0.776,-0.7757,-0.7729,-0.7736,-0.7736,-0.7736,-0.7734,-0.7719,-0.7714,-0.7726,-0.7726,-0.7724,-0.7706,-0.7701,-0.7699,-0.7676,-0.7693,-0.7692,-0.7691,-0.7691,-0.7636,-0.7636,0,0,0,0,0,0,-0.7762,-0.7758,-0.773,-0.7729,-0.7749,-0.7735,-0.7733,-0.7726,-0.7714,-0.7712,-0.7723,-0.7724,-0.7703,-0.7701,-0.7699,-0.7675,-0.7692,-0.7691,-0.769,-0.7637,-0.7636,-0.7635,0,0,0,0,0,0,-0.7763,-0.7759,-0.7731,-0.7743,-0.774,-0.7734,-0.7726,-0.7725,-0.772,-0.7712,-0.7711,-0.7719,-0.7703,-0.77,-0.7683,-0.7674,-0.769,-0.7689,-0.7638,-0.7637,-0.7636,-0.7627,0,0,0,0,0,0,-0.7764,-0.7759,-0.7753,-0.7743,-0.7739,-0.7717,-0.7726,-0.7725,-0.7718,-0.7719,-0.7708,-0.7706,-0.7704,-0.7685,-0.7682,-0.7672,-0.7688,-0.7638,-0.7637,-0.7636,-0.7628,-0.7626,-0.7624,0,0,0,0,0,-0.7765,-0.7751,-0.7752,-0.7749,-0.7731,-0.7716,-0.7714,-0.7712,-0.7717,-0.771,-0.7704,-0.7707,-0.7676,-0.7684,-0.768,-0.767,-0.7639,-0.7638,-0.7636,-0.7629,-0.7627,-0.7624,0,0,0,0,0,0,-0.7759,-0.775,-0.7751,-0.7734,-0.7726,-0.7717,-0.7708,-0.7709,-0.7699,-0.77,-0.7697,-0.7694,-0.7677,-0.7672,-0.7681,-0.765,-0.7658,-0.7656,-0.7654,-0.7651,-0.7649,-0.7651,-0.7686,0,0,0,0,0,-0.7756,-0.7745,-0.7737,-0.7723,-0.7719,-0.7714,-0.7707,-0.7706,-0.7698,-0.7694,-0.7688,-0.7678,-0.7667,-0.7659,-0.7648,-0.7628,-0.7625,-0.7619,-0.7617,-0.7615,-0.7613,-0.7601,-0.7598,-0.7631,-0.7631,-0.7631,0,0,-0.7748,-0.7742,-0.7736,-0.7721,-0.7715,-0.7703,-0.7711,-0.7699,-0.769,-0.7692,-0.7675,-0.767,-0.766,-0.7641,-0.7633,-0.7636,-0.7603,-0.7613,-0.7612,-0.7611,-0.7599,-0.7596,-0.7593,-0.763,-0.763,-0.763,0,0,-0.773,-0.7724,-0.7711,-0.7704,-0.7695,-0.7692,-0.7688,-0.7679,-0.7676,-0.7659,-0.7661,-0.765,-0.763,-0.7622,-0.7615,-0.7593,-0.7594,-0.7589,-0.7578,-0.7567,-0.7564,-0.7562,-0.7553,-0.755,-0.7587,-0.7587,-0.7587,0,-0.7722,-0.7705,-0.7704,-0.7691,-0.7684,-0.7687,-0.7673,-0.7666,-0.7653,-0.7648,-0.7653,-0.7627,-0.762,-0.7599,-0.7594,-0.7589,-0.7584,-0.759,-0.7565,-0.7563,-0.756,-0.7552,-0.7549,-0.7587,-0.7587,-0.7587,-0.7587,0,-0.7695,-0.7684,-0.7674,-0.7662,-0.7654,-0.7641,-0.7637,-0.7629,-0.7629,-0.7625,-0.7607,-0.7599,-0.7586,-0.7581,-0.758,-0.7559,-0.7562,-0.7566,-0.7574,-0.7557,-0.7548,-0.7545,-0.7586,-0.7586,-0.7586,-0.7586,0,0,-0.7672,-0.7659,-0.7656,-0.765,-0.7639,-0.763,-0.7616,-0.7604,-0.7596,-0.7587,-0.7575,-0.7558,-0.7561,-0.7554,-0.7552,-0.7542,-0.7524,-0.7547,-0.7547,-0.7542,-0.7499,-0.7496,-0.7492,-0.7525,-0.7524,-0.7524,-0.75,0,-0.7651,-0.7628,-0.7626,-0.7605,-0.7594,-0.7595,-0.7583,-0.7575,-0.7571,-0.756,-0.7555,-0.7543,-0.7548,-0.7544,-0.7534,-0.7528,-0.7515,-0.753,-0.7512,-0.7512,-0.7514,-0.7488,-0.7484,-0.7462,-0.7496,-0.7496,-0.7496,0,-0.7624,-0.7615,-0.7592,-0.7583,-0.7578,-0.7567,-0.7555,-0.7545,-0.7535,-0.7533,-0.7524,-0.7524,-0.7509,-0.7518,-0.7497,-0.7507,-0.75,-0.7495,-0.7495,-0.7492,-0.7502,-0.7484,-0.7455,-0.7451,-0.7491,-0.7491,-0.7491,0,-0.7608,-0.759,-0.7574,-0.7569,-0.7557,-0.755,-0.7544,-0.7535,-0.7528,-0.7517,-0.7512,-0.7499,-0.7492,-0.7482,-0.7478,-0.7485,-0.7457,-0.7465,-0.7453,-0.7453,-0.7447,-0.7447,-0.7415,-0.7443,-0.7443,-0.7443,-0.7444,0,-0.7585,-0.7571,-0.7566,-0.7556,-0.754,-0.7538,-0.7522,-0.7517,-0.7509,-0.7497,-0.7498,-0.7487,-0.7483,-0.7471,-0.7468,-0.745,-0.7447,-0.7444,-0.7443,-0.7443,-0.7443,-0.7438,-0.7439,-0.7443,-0.7443,-0.7443,-0.7443,0,-0.7565,-0.7561,-0.7543,-0.7534,-0.7531,-0.752,-0.7511,-0.7501,-0.7497,-0.7482,-0.7479,-0.7472,-0.7458,-0.7453,-0.7436,-0.7434,-0.7413,-0.7414,-0.7416,-0.7416,-0.7404,-0.7404,-0.7367,-0.7361,-0.7393,-0.7393,-0.7393,0,-0.755,-0.7539,-0.7528,-0.7521,-0.7515,-0.7503,-0.7496,-0.7493,-0.7485,-0.7472,-0.7463,-0.745,-0.7438,-0.7415,-0.7408,-0.7395,-0.7395,-0.7383,-0.7393,-0.7393,-0.7394,-0.7394,-0.7392,-0.738,-0.738,-0.738,-0.738,0,-0.7523,-0.7522,-0.7511,-0.7499,-0.749,-0.748,-0.7471,-0.7465,-0.746,-0.7451,-0.7437,-0.7428,-0.741,-0.7396,-0.7382,-0.7376,-0.7376,-0.7377,-0.7373,-0.7373,-0.7374,-0.7372,-0.741,-0.7377,-0.7377,-0.7378,-0.7378,-0.7378,-0.7504,-0.7495,-0.7486,-0.7473,-0.7466,-0.7457,-0.7447,-0.7442,-0.743,-0.7416,-0.7415,-0.7399,-0.7388,-0.737,-0.7363,-0.735,-0.7353,-0.7348,-0.7347,-0.7345,-0.7344,-0.7377,-0.7348,-0.7348,-0.7348,-0.7348,-0.7348,0,-0.7477,-0.7472,-0.746,-0.7447,-0.7437,-0.744,-0.7429,-0.742,-0.7407,-0.7397,-0.7386,-0.7369,-0.7355,-0.7347,-0.7333,-0.7324,-0.7324,-0.732,-0.7321,-0.7319,-0.7342,-0.7347,-0.7321,-0.7321,-0.7321,-0.7321,-0.7321,-0.7321,-0.7462,-0.7445,-0.7443,-0.7422,-0.7416,-0.7401,-0.7395,-0.7386,-0.7379,-0.736,-0.7349,-0.7344,-0.7334,-0.732,-0.7306,-0.7304,-0.7299,-0.7295,-0.7293,-0.7315,-0.7317,-0.732,-0.7324,-0.7294,-0.7294,-0.727,-0.727,-0.727]},{"header":{"parameterUnit":"m.s-1","parameterCategory":1,"la1":30.2991,"la2":30.254,"lo1":-89.0895,"lo2":-89.0444,"dy":0.0017,"dx":0.0017,"nx":28,"ny":28,"refTime":"2024-06-13T03:00:00:Z","depth":0,"parameterNumber":3,"parameterNumberName":"V-component_of_WINDS"},"data":[0,0,0,0,0,0,0,0,0,0,0,0,0,0,0,0,0,0,0,0,0,0,0,0,0,0,0,0,0,0,0,0,0,0,0,0,0,0,0,0,0,0,0,0,0,0,0,0,0,0,0,0,0,0,0,0,0,0,-1.41,-1.4101,0,-1.4216,-1.4218,-1.4219,-1.4293,-1.4293,-1.4293,-1.4294,-1.441,-1.4413,-1.4416,0,0,0,0,0,0,0,0,0,0,0,0,0,-1.3939,-1.3941,-1.41,-1.4101,-1.4103,-1.4216,-1.4218,-1.4219,-1.4293,-1.4293,-1.4294,-1.4294,-1.4409,-1.4413,-1.4416,0,0,0,0,0,0,0,0,0,0,0,0,0,-1.4027,-1.3942,-1.4099,-1.4153,-1.4159,-1.4216,-1.4218,-1.422,-1.4292,-1.4293,-1.4294,-1.4294,-1.4408,-1.4412,-1.4416,-1.4428,0,0,-1.4429,-1.443,0,0,0,0,0,0,0,0,-1.4022,-1.4033,-1.4144,-1.4149,-1.4156,-1.4241,-1.4204,-1.4289,-1.4292,-1.4242,-1.4294,-1.4295,-1.4353,-1.4362,-1.4382,-1.4434,-1.4439,-1.4429,-1.4432,-1.4433,-1.4434,0,0,0,0,0,0,0,-1.4016,-1.4028,-1.4146,-1.4145,-1.4153,-1.417,-1.4184,-1.422,-1.4292,-1.4246,-1.4252,-1.4265,-1.4357,-1.4378,-1.4385,-1.444,-1.4429,-1.4433,-1.4435,-1.4437,-1.4508,-1.4508,0,0,0,0,0,0,-1.4001,-1.4023,-1.4142,-1.4149,-1.4089,-1.4173,-1.4188,-1.4213,-1.4292,-1.4305,-1.4264,-1.4268,-1.4371,-1.4381,-1.439,-1.4409,-1.4433,-1.4437,-1.4439,-1.4509,-1.4508,-1.4508,0,0,0,0,0,0,-1.3998,-1.4011,-1.4137,-1.4088,-1.4105,-1.4175,-1.4202,-1.4215,-1.4236,-1.4306,-1.4319,-1.4273,-1.4372,-1.4384,-1.4418,-1.4414,-1.4439,-1.4443,-1.4509,-1.4509,-1.4508,-1.4448,0,0,0,0,0,0,-1.3993,-1.401,-1.4015,-1.4087,-1.4107,-1.4164,-1.4202,-1.4217,-1.4243,-1.4249,-1.4317,-1.4329,-1.4373,-1.4412,-1.4422,-1.442,-1.4446,-1.451,-1.4509,-1.4508,-1.445,-1.4445,-1.444,0,0,0,0,0,-1.3987,-1.3993,-1.4015,-1.4029,-1.4116,-1.4164,-1.4175,-1.4227,-1.4243,-1.4249,-1.4293,-1.4327,-1.4413,-1.4415,-1.4427,-1.4426,-1.451,-1.4509,-1.4508,-1.4453,-1.4446,-1.4441,0,0,0,0,0,0,-1.3917,-1.4003,-1.4029,-1.4059,-1.4104,-1.4176,-1.4185,-1.4218,-1.4259,-1.4262,-1.4324,-1.4339,-1.4367,-1.44,-1.4401,-1.4442,-1.4466,-1.4467,-1.4419,-1.4414,-1.4409,-1.44,-1.4449,0,0,0,0,0,-1.3906,-1.3938,-1.4011,-1.4031,-1.4052,-1.4115,-1.4137,-1.4173,-1.4222,-1.4241,-1.4288,-1.4334,-1.4371,-1.4394,-1.4433,-1.4456,-1.4472,-1.4461,-1.4456,-1.4452,-1.4452,-1.4467,-1.4463,-1.4504,-1.4504,-1.4504,0,0,-1.3882,-1.3933,-1.3949,-1.4018,-1.4057,-1.4089,-1.413,-1.4162,-1.4186,-1.4246,-1.4281,-1.4318,-1.4372,-1.4401,-1.4416,-1.443,-1.4445,-1.445,-1.4446,-1.4449,-1.4466,-1.4462,-1.4458,-1.4503,-1.4503,-1.4503,0,0,-1.3854,-1.3896,-1.3917,-1.3955,-1.4015,-1.4056,-1.4061,-1.413,-1.4156,-1.4193,-1.4239,-1.4268,-1.4331,-1.4369,-1.4396,-1.4383,-1.4415,-1.4394,-1.4367,-1.4381,-1.4378,-1.4376,-1.4371,-1.4369,-1.4394,-1.4394,-1.4394,0,-1.3816,-1.3867,-1.3923,-1.3953,-1.3981,-1.4038,-1.406,-1.4094,-1.4162,-1.418,-1.4195,-1.4276,-1.4317,-1.4355,-1.4352,-1.4373,-1.438,-1.4386,-1.4374,-1.4372,-1.4371,-1.4367,-1.4365,-1.4391,-1.4391,-1.4391,-1.4392,0,-1.3817,-1.3852,-1.3861,-1.3927,-1.3957,-1.3982,-1.4042,-1.4065,-1.4099,-1.4139,-1.4176,-1.4227,-1.4277,-1.4289,-1.4321,-1.4332,-1.4339,-1.4363,-1.4388,-1.4363,-1.4361,-1.436,-1.4386,-1.4387,-1.4388,-1.4389,0,0,-1.3748,-1.3846,-1.3848,-1.3879,-1.3949,-1.3976,-1.4004,-1.4054,-1.4072,-1.4118,-1.4142,-1.4195,-1.4218,-1.4249,-1.4286,-1.4299,-1.4286,-1.4322,-1.4324,-1.4313,-1.4301,-1.4282,-1.4279,-1.4308,-1.4308,-1.4308,-1.4296,0,-1.3731,-1.3784,-1.3836,-1.3871,-1.3903,-1.3958,-1.3983,-1.4028,-1.4066,-1.4099,-1.4141,-1.4177,-1.4205,-1.4224,-1.4239,-1.4284,-1.4284,-1.4286,-1.4331,-1.4332,-1.4315,-1.4278,-1.4258,-1.4244,-1.4296,-1.4295,-1.4295,0,-1.3717,-1.3761,-1.3799,-1.3867,-1.3882,-1.3903,-1.3953,-1.3984,-1.4036,-1.4064,-1.4098,-1.4138,-1.417,-1.4192,-1.4236,-1.4236,-1.4258,-1.4282,-1.4283,-1.4289,-1.4311,-1.4282,-1.4241,-1.4239,-1.4294,-1.4295,-1.4295,0,-1.3662,-1.3731,-1.3763,-1.3788,-1.3867,-1.3881,-1.3914,-1.3968,-1.3994,-1.4038,-1.4056,-1.4102,-1.4128,-1.4162,-1.4214,-1.4225,-1.4252,-1.4278,-1.4275,-1.4274,-1.4278,-1.4277,-1.4239,-1.4292,-1.4293,-1.4293,-1.4293,0,-1.3637,-1.3658,-1.374,-1.3759,-1.3785,-1.3844,-1.3867,-1.3906,-1.3953,-1.398,-1.4031,-1.4055,-1.4122,-1.4154,-1.4195,-1.4225,-1.4236,-1.4259,-1.4269,-1.4254,-1.4251,-1.4268,-1.427,-1.4292,-1.4292,-1.4292,-1.4292,0,-1.358,-1.3636,-1.3674,-1.3747,-1.3766,-1.3781,-1.3843,-1.3864,-1.3906,-1.394,-1.3951,-1.4017,-1.4058,-1.4113,-1.417,-1.4197,-1.4223,-1.4239,-1.4205,-1.4211,-1.4205,-1.4205,-1.4177,-1.4176,-1.4229,-1.4229,-1.4228,0,-1.356,-1.3578,-1.3653,-1.3675,-1.3708,-1.3743,-1.3772,-1.3831,-1.3858,-1.3919,-1.3933,-1.3978,-1.4017,-1.408,-1.4132,-1.4177,-1.4194,-1.4182,-1.4201,-1.4186,-1.4194,-1.4192,-1.4194,-1.4176,-1.4176,-1.4175,-1.4174,0,-1.3518,-1.3545,-1.3584,-1.3633,-1.3665,-1.3706,-1.375,-1.3765,-1.3833,-1.3861,-1.3904,-1.3935,-1.3995,-1.4039,-1.409,-1.4125,-1.416,-1.4168,-1.417,-1.4154,-1.4133,-1.4144,-1.4191,-1.4168,-1.4169,-1.4169,-1.4169,-1.417,-1.3479,-1.3498,-1.3554,-1.3596,-1.3635,-1.3674,-1.3697,-1.3743,-1.378,-1.3834,-1.3867,-1.3908,-1.3961,-1.4034,-1.4067,-1.41,-1.4114,-1.4117,-1.4117,-1.4117,-1.4112,-1.4129,-1.411,-1.411,-1.411,-1.4111,-1.4111,0,-1.344,-1.3479,-1.3517,-1.3577,-1.3609,-1.3642,-1.3692,-1.3717,-1.3753,-1.38,-1.3838,-1.3887,-1.3931,-1.3987,-1.4034,-1.405,-1.4067,-1.406,-1.4059,-1.4066,-1.4096,-1.409,-1.4045,-1.4045,-1.4045,-1.4045,-1.4045,-1.4045,-1.3423,-1.3457,-1.349,-1.3543,-1.3582,-1.3624,-1.365,-1.3686,-1.3724,-1.3777,-1.3814,-1.3851,-1.3901,-1.3953,-1.3994,-1.4009,-1.4024,-1.4011,-1.4031,-1.4058,-1.4064,-1.407,-1.4064,-1.4014,-1.4014,-1.3999,-1.3999,-1.3999]}]]